Location: Neuvy Saint Sepulchre
(46.5953°N, 1.8122°E)
Time: 19:50:11
(UTC+01:00)

ISS - Pass Details

Date: 02 December 2021
Orbit: 417 x 422 km, 51.6° (Epoch: 06 December)

Event Time Altitude Azimuth Distance (km) Brightness Sun altitude
Rises 19:31:17 0° 296° (WNW) 2,379 1.0 -24.1°
Reaches altitude 10° 19:33:24 10° 296° (WNW) 1,511 -0.2 -24.4°
Enters shadow 19:35:20 32° 297° (WNW) 758 -2.0 -24.8°
